This demonstration page uses our WeatherBlox Daily Observations layout. Learn more.

Left ArrowRight Arrow

39.08367, -84.50855

Hourly Observations for April 29, 2018

Temp ( °F °C ) Dew Point ( °F °C ) Humidity (%) Winds ( mph kmh ) Pressure ( in mb ) Visibility ( mi km ) Precip ( " mm )
12:53 am 00:53 Clear 45 7.2 23 -5 42 42 NNW 12 19 30.21 1023 10 16 N/A
1:53 am 01:53 Clear 42 5.6 21 -6.1 43 43 N N/A 30.22 1023 10 16 N/A
2:53 am 02:53 Clear 40 4.4 22 -5.6 49 49 NNW 5 7 30.22 1023 10 16 N/A
3:53 am 03:53 Clear 36 2.2 26 -3.3 67 67 N N/A 30.23 1024 10 16 N/A
4:53 am 04:53 Clear 35 1.7 25 -3.9 67 67 N N/A 30.24 1024 10 16 N/A
5:53 am 05:53 Clear 33 0.6 28 -2.2 82 82 N N/A 30.25 1025 10 16 N/A
6:53 am 06:53 Sunny 32 undefined 27 -2.8 82 82 N N/A 30.28 1025 10 16 N/A
7:53 am 07:53 Sunny 37 2.8 27 -2.8 67 67 N N/A 30.30 1026 10 16 N/A
8:53 am 08:53 Sunny 42 5.6 28 -2.2 58 58 NNW 3 6 30.32 1027 10 16 N/A
9:53 am 09:53 Sunny 46 7.8 31 -0.6 56 56 NE 7 11 30.34 1027 10 16 N/A
10:53 am 10:53 Sunny 49 9.4 34 1.1 56 56 NE 7 11 30.35 1028 10 16 N/A
11:53 am 11:53 Sunny 52 11.1 34 1.1 50 50 NE 8 13 30.35 1028 10 16 N/A
12:53 pm 12:53 Sunny 55 12.8 29 -1.7 37 37 N 8 13 30.34 1028 10 16 N/A
1:53 pm 13:53 Sunny 57 13.9 28 -2.2 33 33 N 6 9 30.33 1027 10 16 N/A
2:53 pm 14:53 Sunny 58 14.4 30 -1.1 35 35 ENE 7 11 30.32 1027 10 16 N/A
3:53 pm 15:53 Sunny 59 15 30 -1.1 33 33 VRB 6 9 30.30 1026 10 16 N/A
4:53 pm 16:53 Sunny 60 15.6 28 -2.2 30 30 WNW 8 13 30.29 1026 10 16 N/A
5:53 pm 17:53 Sunny 60 15.6 30 -1.1 32 32 W 3 6 30.28 1025 10 16 N/A
6:53 pm 18:53 Sunny 60 15.6 30 -1.1 32 32 VRB 3 6 30.26 1025 10 16 N/A
7:53 pm 19:53 Sunny 59 15 25 -3.9 27 27 N N/A 30.27 1025 10 16 N/A
8:53 pm 20:53 Clear 51 10.6 37 2.8 59 59 N N/A 30.28 1025 10 16 N/A
9:53 pm 21:53 Clear 47 8.3 36 2.2 66 66 N N/A 30.29 1026 10 16 N/A
10:53 pm 22:53 Clear 44 6.7 35 1.7 71 71 N N/A 30.29 1026 10 16 N/A
11:53 pm 23:53 Clear 42 5.6 36 2.2 79 79 N N/A 30.30 1026 10 16 N/A

Powered by AerisWeather